Weather History for Roosevelt Roads, PR

Change the Weather History Date:

Monday, May 13, 2013

  Actual Average Record
Temperature  
Mean Temperature 78 °F -  
Max Temperature 84 °F 83 °F 89 °F (2002)
Min Temperature 73 °F 72 °F 73 °F (2000)
Cooling Degree Days 14    
Growing Degree Days 28 (Base 50)    
Moisture  
Dew Point 75 °F    
Average Humidity 89    
Maximum Humidity 100    
Minimum Humidity 76    
Precipitation  
Precipitation 0.00 in - - ()
Sea Level Pressure  
Sea Level Pressure 30.03 in    
Wind  
Wind Speed 5 mph (ESE)    
Max Wind Speed 15 mph    
Max Gust Speed -    
Visibility 10 miles    
Events      
Averages and records for this station are not official NWS values.
T = Trace of Precipitation, MM = Missing Value Source: NWS Daily Summary

Daily Weather History Graph

Daily Weather History Graph

Search for Another Location

Airport:

Trip Planner

Search our weather history database for the weather conditions in past years. The results will help you decide how hot, cold, wet, or windy it might be!

Date:

Astronomy

May. 13, 2013 Rise Set
Actual Time 5:49 AM AST 6:48 PM AST
Civil Twilight 5:26 AM AST 7:11 PM AST
Nautical Twilight 4:59 AM AST 7:38 PM AST
Astronomical Twilight 4:31 AM AST 8:07 PM AST
Moon 8:35 AM AST (5/13) 9:53 PM AST (5/13)
Length of Visible Light 13h 44m
Length of Day
12h 58m
Waxing Crescent, 12% of the Moon is Illuminated
May 13
Waxing Crescent
May 18
First Quarter
May 25
Full
May 31
Last Quarter
Jun 8
New

Hourly Weather History & Observations

Time (AST) Temp. Heat Index Dew Point Humidity Pressure Visibility Wind Dir Wind Speed Gust Speed Precip Events Conditions
12:53 AM 75.0 °F - 73.9 °F 96% 30.01 in 10.0 mi Calm Calm - N/A   Scattered Clouds
1:44 AM 73.4 °F - 73.4 °F 100% 30.00 in 9.0 mi Calm Calm - N/A   Mostly Cloudy
1:53 AM 75.0 °F - 75.0 °F 100% 30.00 in 9.0 mi Calm Calm - N/A   Mostly Cloudy
2:02 AM 75.2 °F - 75.2 °F 100% 30.00 in 9.0 mi Calm Calm - N/A   Scattered Clouds
2:30 AM 75.2 °F - 75.2 °F 100% 29.99 in 9.0 mi Calm Calm - N/A   Overcast
2:53 AM 75.0 °F - 75.0 °F 100% 29.99 in 8.0 mi Calm Calm - N/A   Overcast
3:53 AM 77.0 °F - 75.0 °F 94% 29.99 in 10.0 mi SE 4.6 mph - N/A   Mostly Cloudy
4:44 AM 75.2 °F - 75.2 °F 100% 30.00 in 10.0 mi ESE 3.5 mph - N/A   Scattered Clouds
4:53 AM 77.0 °F - 75.0 °F 94% 30.00 in 10.0 mi Calm Calm - N/A   Scattered Clouds
5:53 AM - - - N/A% 30.02 in 9.0 mi Calm Calm - N/A   Clear
6:53 AM - - - N/A% 30.04 in 10.0 mi SSE 3.5 mph - N/A   Scattered Clouds
7:14 AM - - - N/A% 30.04 in 10.0 mi ESE 5.8 mph - N/A   Mostly Cloudy
7:25 AM - - - N/A% 30.04 in 10.0 mi SE 9.2 mph - N/A   Mostly Cloudy
7:53 AM 80.1 °F 85.4 °F 75.9 °F 87% 30.05 in 10.0 mi SE 10.4 mph - N/A   Partly Cloudy
8:53 AM 82.0 °F 89.4 °F 75.9 °F 82% 30.06 in 10.0 mi ESE 11.5 mph - N/A   Clear
9:53 AM 82.9 °F 90.2 °F 75.0 °F 77% 30.06 in 10.0 mi ESE 10.4 mph - N/A   Partly Cloudy
10:53 AM 82.9 °F 90.8 °F 75.9 °F 79% 30.07 in 10.0 mi East 11.5 mph - N/A   Scattered Clouds
11:53 AM 84.0 °F 92.6 °F 75.9 °F 76% 30.06 in 10.0 mi East 9.2 mph - N/A   Partly Cloudy
12:53 PM 84.0 °F 92.6 °F 75.9 °F 76% 30.04 in 10.0 mi East 11.5 mph - N/A   Scattered Clouds
1:53 PM 84.0 °F 92.6 °F 75.9 °F 76% 30.03 in 10.0 mi ESE 10.4 mph - N/A   Partly Cloudy
2:53 PM 84.0 °F 92.6 °F 75.9 °F 76% 30.01 in 10.0 mi East 10.4 mph - N/A   Clear
4:53 PM 81.0 °F 86.2 °F 73.9 °F 79% 30.00 in 10.0 mi ESE 15.0 mph - N/A   Partly Cloudy
5:53 PM 80.1 °F 85.1 °F 75.0 °F 85% 30.01 in 10.0 mi ESE 11.5 mph - N/A   Partly Cloudy
6:53 PM 79.0 °F - 75.9 °F 90% 30.03 in 9.0 mi ESE 6.9 mph - N/A   Scattered Clouds
7:07 PM 78.8 °F - 75.2 °F 89% 30.03 in 10.0 mi East 9.2 mph - N/A   Mostly Cloudy
7:32 PM 78.8 °F - 75.2 °F 89% 30.03 in 10.0 mi East 9.2 mph - N/A   Scattered Clouds
7:53 PM 79.0 °F - 75.0 °F 88% 30.04 in 10.0 mi ESE 9.2 mph - N/A   Partly Cloudy
8:20 PM 78.8 °F - 75.2 °F 89% 30.04 in 10.0 mi East 9.2 mph - N/A   Mostly Cloudy
8:40 PM 78.8 °F - 75.2 °F 89% 30.05 in 10.0 mi East 6.9 mph - N/A   Scattered Clouds
8:51 PM 78.8 °F - 75.2 °F 89% 30.05 in 10.0 mi East 6.9 mph - N/A   Mostly Cloudy
8:53 PM 79.0 °F - 75.9 °F 90% 30.05 in 10.0 mi East 6.9 mph - N/A   Mostly Cloudy
9:41 PM 78.8 °F - 75.2 °F 89% 30.06 in 10.0 mi East 9.2 mph - N/A   Scattered Clouds
9:53 PM 79.0 °F - 73.9 °F 84% 30.07 in 10.0 mi East 11.5 mph - N/A   Partly Cloudy
10:29 PM 78.8 °F - 75.2 °F 89% 30.07 in 10.0 mi East 8.1 mph - N/A   Scattered Clouds
10:51 PM 78.8 °F - 75.2 °F 89% 30.06 in 10.0 mi East 8.1 mph - N/A   Mostly Cloudy
10:53 PM 79.0 °F - 75.9 °F 90% 30.06 in 10.0 mi East 8.1 mph - N/A   Mostly Cloudy
11:02 PM 78.8 °F - 75.2 °F 89% 30.06 in 10.0 mi East 6.9 mph - N/A   Mostly Cloudy
11:34 PM 78.8 °F - 75.2 °F 89% 30.06 in 10.0 mi East 4.6 mph - N/A   Mostly Cloudy
11:53 PM 78.1 °F - 75.0 °F 90% 30.06 in 10.0 mi ENE 6.9 mph - N/A   Mostly Cloudy